sat.trackr.live / text

‹ back to catalog

EINSTEIN PROBE

NORAD 58753 · 2024-007A

PAYLOAD ACTIVE UNKNOWN

§ Identity

Operator
Country
PRC
Launch date
2024-01-09
Launch site
XICLF
Launch vehicle
Mass (kg)
RCS (m²)

External: N2YO · Heavens-Above · Gunter

§ Orbital elements

Epoch: 2026-05-25T04:09:50.799168Z

Period
95.89 min
Inclination
29.0001°
Eccentricity
0.0009572
Mean motion
15.01756805 rev/d
Perigee alt
554.8 km
Apogee alt
568.1 km
Semi-major
6,939.6 km
B*
1.8863e-4
RAAN
3.1333°
Arg perigee
333.3685°
Mean anomaly
26.6421°
Rev number
13,010

§ Raw data

EINSTEIN PROBE1 58753U 24007A   26145.17350462  .00002669  00000+0  18863-3 0  99982 58753  29.0001   3.1333 0009572 333.3685  26.6421 15.01756805130103

JSON: /api/v1/satellites/58753 · /tle

For live sub-satellite position, see the globe view (requires WebGL).

§ Visibility from observer

Set your observer location to see the next 7 days of passes ≥ 10°. The values pass through the URL so the page stays shareable.

No JS? Fill the form by hand. The geolocation button needs JavaScript.